Springfield, MO

11:43 PM CDT on June 26, 2017 (GMT -0500)
Springfield-Branson Regional

Weather History for KSGF - October, 2011

Change the Weather History Date:

Wednesday, October 5, 2011

  Actual Average Record
Temperature  
Mean Temperature 64 °F 61 °F  
Max Temperature 78 °F 73 °F 93 °F (1981)
Min Temperature 50 °F 50 °F 31 °F (1979)
Degree Days  
Heating Degree Days 1 5  
Month to date heating degree days 28 25  
Since 1 July heating degree days 121 80  
Cooling Degree Days 0 2  
Month to date cooling degree days 0 10  
Year to date cooling degree days 1792 1369  
Growing Degree Days 14 (Base 50)    
Moisture  
Dew Point 44 °F    
Average Humidity 52    
Maximum Humidity 77    
Minimum Humidity 27    
Precipitation  
Precipitation 0.00 in 0.12 in 2.43 in (1998)
Month to date precipitation 0.00 0.62  
Year to date precipitation 31.21 35.34  
Snow  
Snow 0.00 in - - ()
Month to date snowfall 0.0  
Since 1 July snowfall 0.0  
Since 1 September snowfall 0.0  
Snow Depth 0.00 in    
Sea Level Pressure  
Sea Level Pressure 30.16 in    
Wind  
Wind Speed 10 mph (SSE)    
Max Wind Speed 16 mph    
Max Gust Speed 21 mph    
Visibility 10 miles    
Events      
T = Trace of Precipitation, MM = Missing Value Source: NWS Daily Summary

Daily Weather History Graph

Daily Weather History Graph

Search for Another Location

Airport or City:

Trip Planner

Search our weather history database for the weather conditions in past years. The results will help you decide how hot, cold, wet, or windy it might be!

Date:

Astronomy

Oct. 05, 2011 Rise Set
Actual Time 7:12 AM CDT 6:51 PM CDT
Civil Twilight 6:46 AM CDT 7:17 PM CDT
Nautical Twilight 6:16 AM CDT 7:47 PM CDT
Astronomical Twilight 5:45 AM CDT 8:17 PM CDT
Moon 3:24 PM CDT (10/5) 1:07 AM CDT (10/5)
Length of Visible Light 12h 30m
Length of Day
11h 38m
Waxing Gibbous, 66% of the Moon is Illuminated
Oct 5
Waxing Gibbous
Oct 11
Full
Oct 19
Last Quarter
Oct 26
New
Nov 2
First Quarter

Hourly Weather History & Observations

Time (CDT) Temp. Dew Point Humidity Pressure Visibility Wind Dir Wind Speed Gust Speed Precip Events Conditions
12:52 AM 55.9 °F 46.0 °F 69% 30.16 in 10.0 mi SSE 9.2 mph - N/A   Clear
1:52 AM 55.9 °F 45.0 °F 67% 30.17 in 10.0 mi SSE 10.4 mph - N/A   Clear
2:52 AM 55.0 °F 45.0 °F 69% 30.17 in 10.0 mi SSE 9.2 mph - N/A   Clear
3:52 AM 52.0 °F 44.1 °F 74% 30.17 in 10.0 mi SSE 8.1 mph - N/A   Clear
4:52 AM 51.1 °F 44.1 °F 77% 30.18 in 10.0 mi SE 5.8 mph - N/A   Clear
5:52 AM 50.0 °F 43.0 °F 77% 30.19 in 10.0 mi SE 6.9 mph - N/A   Clear
6:52 AM 51.1 °F 44.1 °F 77% 30.21 in 10.0 mi SSE 9.2 mph - N/A   Clear
7:52 AM 52.0 °F 44.1 °F 74% 30.22 in 10.0 mi SSE 9.2 mph - N/A   Clear
8:52 AM 60.1 °F 45.0 °F 57% 30.22 in 10.0 mi SSE 9.2 mph - N/A   Clear
9:52 AM 66.0 °F 45.0 °F 47% 30.22 in 10.0 mi SSE 9.2 mph - N/A   Clear
10:52 AM 70.0 °F 44.1 °F 39% 30.21 in 10.0 mi SSE 13.8 mph - N/A   Clear
11:52 AM 73.0 °F 45.0 °F 37% 30.19 in 10.0 mi SSE 12.7 mph - N/A   Clear
12:52 PM 75.9 °F 42.1 °F 30% 30.17 in 10.0 mi SSE 9.2 mph - N/A   Clear
1:52 PM 77.0 °F 42.1 °F 29% 30.14 in 10.0 mi South 8.1 mph - N/A   Clear
2:52 PM 78.8 °F 41.0 °F 26% 30.15 in 10.0 mi SE 9.2 mph - N/A   Clear
3:52 PM 77.0 °F 42.8 °F 29% 30.13 in 10.0 mi SSE 9.2 mph - N/A   Clear
4:52 PM 75.9 °F 42.1 °F 30% 30.10 in 10.0 mi SSE 12.7 mph - N/A   Clear
5:52 PM 73.4 °F 42.8 °F 33% 30.12 in 10.0 mi SSE 9.2 mph - N/A   Clear
6:52 PM 66.9 °F 44.1 °F 44% 30.10 in 10.0 mi ESE 9.2 mph - N/A   Clear
7:52 PM 62.6 °F 44.6 °F 52% 30.11 in 10.0 mi ESE 9.2 mph - N/A   Clear
8:52 PM 62.1 °F 45.0 °F 53% 30.10 in 10.0 mi SE 6.9 mph - N/A   Clear
9:52 PM 64.9 °F 46.0 °F 50% 30.11 in 10.0 mi SE 10.4 mph - N/A   Clear
10:52 PM 64.0 °F 46.0 °F 52% 30.10 in 10.0 mi SE 11.5 mph - N/A   Clear
11:52 PM 62.6 °F 46.4 °F 55% 30.12 in 10.0 mi SSE 12.7 mph - N/A   Clear